This is the latest recevied weather packets stored in our database for station/object K2RMB. If no packets are shown the sender has not sent any weather packets the latest 10 day(s).
| Time | Temp. | Humidity | Pressure | Rain* | Wind** | Luminosity | Snow |
|---|---|---|---|---|---|---|---|
| 1777493699 | 18.89° C | 48% | 1011.1 hPa | 0 mm | - | 185 W/m² | - |
| 1777493396 | 18.89° C | 48% | 1011.1 hPa | 0 mm | - | 246 W/m² | - |
| 1777493092 | 18.89° C | 46% | 1011.1 hPa | 0 mm | - | 267 W/m² | - |
| 1777492789 | 19.44° C | 47% | 1011.1 hPa | 0 mm | - | 311 W/m² | - |
| 1777492484 | 19.44° C | 46% | 1011.1 hPa | 0 mm | - | 273 W/m² | - |
| 1777492181 | 19.44° C | 46% | 1011.1 hPa | 0 mm | - | 288 W/m² | - |
| 1777491878 | 20.56° C | 45% | 1011.5 hPa | 0 mm | - | 384 W/m² | - |
| 1777491574 | 20° C | 45% | 1011.1 hPa | 0 mm | - | 400 W/m² | - |
| 1777491272 | 20° C | 46% | 1011.5 hPa | 0 mm | - | 438 W/m² | - |
| 1777490969 | 19.44° C | 47% | 1011.8 hPa | 0 mm | - | 422 W/m² | - |
| 1777490664 | 18.89° C | 46% | 1011.8 hPa | 0 mm | - | 283 W/m² | - |
| 1777490360 | 19.44° C | 47% | 1011.8 hPa | 0 mm | - | 286 W/m² | - |
| 1777490058 | 19.44° C | 46% | 1012.1 hPa | 0 mm | - | 280 W/m² | - |
| 1777489755 | 19.44° C | 46% | 1012.1 hPa | 0 mm | - | 307 W/m² | - |
| 1777489453 | 20° C | 46% | 1012.1 hPa | 0 mm | - | 304 W/m² | - |
| 1777489149 | 20° C | 44% | 1012.1 hPa | 0 mm | - | 451 W/m² | - |
| 1777488847 | 20° C | 45% | 1012.5 hPa | 0 mm | - | 512 W/m² | - |
| 1777488544 | 19.44° C | 44% | 1012.1 hPa | 0 mm | - | 523 W/m² | - |
| 1777488241 | 20° C | 45% | 1012.5 hPa | 0 mm | - | 541 W/m² | - |
| 1777487940 | 19.44° C | 45% | 1012.5 hPa | 0 mm | - | 483 W/m² | - |
| 1777487636 | 20° C | 45% | 1012.5 hPa | 0 mm | - | 456 W/m² | - |
| 1777487334 | 20.56° C | 42% | 1012.9 hPa | 0 mm | - | 535 W/m² | - |
| 1777487031 | 20.56° C | 44% | 1012.5 hPa | 0 mm | - | 658 W/m² | - |
| 1777486727 | 20° C | 44% | 1012.5 hPa | 0 mm | - | 710 W/m² | - |
| 1777486425 | 20° C | 45% | 1012.5 hPa | 0 mm | - | 723 W/m² | - |
* Rain latest hour (hover to see other rain measurements)
** Current wind speed in m/s (hover to see current wind gust speed)